Find Starlink 32173

NORAD ID: 60586 Int'l Des: 2024-150 Owner: SPXS Country: US Constellation: starlink operational
LEOCIRCULAR

Current View

Loading 3D Globe...

About Starlink 32173

Starlink 32173 (NORAD 60586) is a starlink constellation satellite (v2 mini) launched Aug 20, 2024 by SPXS of US. It operates in LEO, CIRCULAR orbit with a mass of 730.00 kg.

About Starlink 32173

Description loading...

Upcoming Passes

Passes for default location (London). Set your location on the main map for personalized predictions.

Altitude History

Loading altitude history...

Two-Line Element Set

1 60586U 24150D 26175.24978764 .00000381 00000-0 22403-4 0 9992
2 60586 53.1593 170.1204 0001166 87.9277 272.1859 15.34389995104388
Epoch: Jun 24, 2026 • Age: 20 hours

Current Status

Altitude 482.1 km
Velocity 7.62 km/s
Sub-Earth Point -53.31°S, 134.17°E
Launch Date Aug 20, 2024
Age 1.8 years
Type internet

Technical Details

Classification Payload
Mass 730.00 kg
Dry Mass 700.00 kg
Total Mass 730.00 kg
Length 0.30 m
Diameter 4.10 m
Span 29.00 m
Shape Box + pan
Manufacturer SPXS
Bus Type Starlink V2M
Phase Status In Orbit
Owner/State SPXS/US

Most Searched